This demonstration page uses our WeatherBlox Daily Observations layout. Learn more.

Left ArrowRight Arrow

39.51506, -84.39828

Hourly Observations for February 16, 2021

Temp ( °F °C ) Dew Point ( °F °C ) Humidity (%) Winds ( mph kmh ) Pressure ( in mb ) Visibility ( mi km ) Precip ( " mm )
12:15 am 00:15 Cloudy with Light Snow 16 -8.7 12 -10.9 84 84 N 14 22 29.80 1009 5 8 0.00 0.00
12:35 am 00:35 Cloudy with Light Snow 16 -8.8 12 -11 84 84 N 13 20 29.81 1009 7 11 0.00 0.00
12:55 am 00:55 Cloudy 15 -9.2 11 -11.7 82 82 N 10 17 29.82 1010 10 16 0.00 0.00
1:15 am 01:15 Cloudy 15 -9.4 10 -12.1 81 81 N 8 13 29.82 1010 10 16 0.00 0.00
1:35 am 01:35 Cloudy 15 -9.5 10 -12.2 81 81 NW 8 13 29.83 1010 10 16 0.00 0.00
1:55 am 01:55 Cloudy 15 -9.7 9 -12.6 80 80 N 9 15 29.83 1010 10 16 0.00 0.00
2:15 am 02:15 Cloudy 15 -9.7 9 -12.6 80 80 NNW 7 11 29.83 1010 10 16 0.00 0.00
2:35 am 02:35 Cloudy 15 -9.6 10 -12.5 80 80 NNW 5 7 29.84 1011 10 16 0.00 0.00
2:55 am 02:55 Cloudy 15 -9.4 10 -12.4 79 79 NW 5 7 29.85 1011 10 16 0.00 0.00
3:15 am 03:15 Cloudy 15 -9.3 10 -12.2 80 80 WNW 5 7 29.85 1011 10 16 0.00 0.00
3:35 am 03:35 Cloudy 15 -9.2 10 -12.1 80 80 WNW 5 7 29.86 1011 10 16 0.00 0.00
3:55 am 03:55 Cloudy 15 -9.2 10 -12.1 80 80 W 6 9 29.86 1011 10 16 0.00 0.00
4:15 am 04:15 Cloudy with Light Snow 15 -9.2 10 -12 80 80 WSW 6 9 29.87 1012 10 16 0.00 0.00
4:35 am 04:35 Cloudy with Light Snow 15 -9.2 11 -11.8 82 82 W 6 9 29.88 1012 10 16 0.00 0.00
4:55 am 04:55 Cloudy with Light Snow 15 -9.2 11 -11.6 83 83 W 5 7 29.89 1012 5 8 0.00 0.00
5:15 am 05:15 Cloudy with Light Snow 15 -9.3 11 -11.5 84 84 W 6 9 29.89 1012 4 6 0.00 0.00
5:35 am 05:35 Cloudy with Light Snow 15 -9.3 12 -11.3 86 86 W 6 9 29.90 1013 5 8 0.00 0.00
5:55 am 05:55 Cloudy with Light Snow 15 -9.3 12 -11.2 86 86 W 7 11 29.91 1013 7 11 0.00 0.00
6:15 am 06:15 Cloudy with Light Snow 15 -9.3 12 -11.2 86 86 W 8 13 29.92 1013 5 8 0.00 0.00
6:35 am 06:35 Cloudy with Light Snow 15 -9.3 12 -11.1 87 87 W 8 13 29.93 1014 5 8 0.00 0.00
6:55 am 06:55 Cloudy with Light Snow 15 -9.4 11 -11.4 86 86 W 9 15 29.95 1014 5 8 0.00 0.00
7:15 am 07:15 Cloudy with Light Snow 15 -9.6 11 -11.7 85 85 W 8 13 29.96 1015 7 11 0.00 0.00
7:35 am 07:35 Cloudy with Light Snow 15 -9.6 11 -11.8 84 84 WSW 7 11 29.97 1015 5 8 0.00 0.00
7:55 am 07:55 Cloudy with Light Snow 14 -9.8 11 -11.8 86 86 WSW 7 11 29.99 1016 7 11 0.00 0.00
8:15 am 08:15 Cloudy with Light Snow 14 -9.8 11 -11.8 86 86 W 9 15 30.00 1016 3 4 0.00 0.00
8:35 am 08:35 Cloudy with Light Snow 14 -9.8 11 -11.8 86 86 W 8 13 30.02 1017 3 4 0.00 0.00
8:55 am 08:55 Cloudy with Light Snow 14 -9.8 10 -12.1 83 83 W 8 13 30.02 1017 3 4 0.00 0.00
9:15 am 09:15 Cloudy with Light Snow 15 -9.7 10 -12.3 82 82 W 12 19 30.03 1017 4 6 0.00 0.00
9:35 am 09:35 Cloudy with Light Snow 15 -9.7 9 -12.7 79 79 W 13 20 30.04 1017 4 6 0.00 0.00
9:55 am 09:55 Cloudy with Light Snow 15 -9.7 8 -13.2 76 76 W 13 20 30.05 1018 10 16 0.00 0.00
10:15 am 10:15 Cloudy with Light Snow 15 -9.6 8 -13.1 76 76 NW 10 17 30.05 1018 5 8 0.00 0.00
10:35 am 10:35 Cloudy with Light Snow 15 -9.5 8 -13.5 73 73 WNW 9 15 30.05 1018 10 16 0.00 0.00
10:55 am 10:55 Cloudy with Light Snow 15 -9.4 7 -13.8 71 71 NW 8 13 30.07 1018 10 16 0.00 0.00
11:15 am 11:15 Cloudy with Light Snow 16 -8.9 8 -13.6 69 69 W 8 13 30.08 1019 10 16 0.00 0.00
11:35 am 11:35 Cloudy 16 -9.1 6 -14.2 67 67 WNW 9 15 30.09 1019 10 16 0.00 0.00
11:55 am 11:55 Cloudy 16 -8.8 7 -13.8 67 67 W 9 15 30.09 1019 10 16 0.00 0.00
12:15 pm 12:15 Cloudy 16 -8.8 7 -13.9 67 67 WNW 9 15 30.10 1019 10 16 0.00 0.00
12:35 pm 12:35 Partly Cloudy 17 -8.3 7 -13.8 65 65 WNW 9 15 30.11 1020 10 16 0.00 0.00
12:55 pm 12:55 Mostly Cloudy 17 -8.3 7 -14 64 64 WNW 8 13 30.11 1020 10 16 0.00 0.00
1:15 pm 13:15 Cloudy 18 -7.9 8 -13.4 65 65 W 14 22 30.13 1020 10 16 0.00 0.00
1:35 pm 13:35 Cloudy 19 -7.5 8 -13.4 63 63 W 14 22 30.14 1021 10 16 0.00 0.00
1:55 pm 13:55 Cloudy 19 -7.5 8 -13.3 64 64 W 13 20 30.15 1021 7 11 0.00 0.00
2:15 pm 14:15 Cloudy with Light Snow 19 -7.3 8 -13.3 63 63 W 16 26 30.16 1021 4 6 0.00 0.00
2:35 pm 14:35 Cloudy 19 -7.3 8 -13.1 64 64 W 12 19 30.16 1021 10 16 0.00 0.00
2:55 pm 14:55 Cloudy with Light Snow 20 -6.8 8 -13.2 61 61 W 13 20 30.15 1021 2 3 0.00 0.00
3:15 pm 15:15 Partly Cloudy 20 -6.9 8 -13.2 61 61 W 12 19 30.16 1021 10 16 0.00 0.00
3:35 pm 15:35 Cloudy with Haze 20 -6.8 9 -12.8 63 63 WSW 14 22 30.17 1022 3 5 0.00 0.00
3:55 pm 15:55 Cloudy with Light Snow 20 -6.6 9 -12.7 62 62 W 10 17 30.19 1022 4 6 0.00 0.00
4:15 pm 16:15 Mostly Cloudy with Light Snow 19 -7 8 -13.2 62 62 W 13 20 30.20 1023 10 16 0.00 0.00
4:35 pm 16:35 Partly Cloudy 19 -7.2 8 -13.3 62 62 W 10 17 30.23 1024 10 16 0.00 0.00
4:55 pm 16:55 Partly Cloudy 19 -7.4 8 -13.2 64 64 W 12 19 30.23 1024 10 16 0.00 0.00
5:15 pm 17:15 Sunny 19 -7.5 8 -13.3 64 64 WNW 10 17 30.24 1024 10 16 0.00 0.00
5:35 pm 17:35 Sunny 17 -8.2 8 -13.5 66 66 W 8 13 30.26 1025 10 16 0.00 0.00
5:55 pm 17:55 Sunny 17 -8.2 7 -13.7 65 65 W 9 15 30.26 1025 10 16 0.00 0.00
6:15 pm 18:15 Sunny 17 -8.6 8 -13.6 67 67 W 6 9 30.27 1025 10 16 0.00 0.00
6:35 pm 18:35 Clear 16 -9.1 7 -14 68 68 WSW 6 9 30.28 1025 10 16 0.00 0.00
6:55 pm 18:55 Clear 16 -9 8 -13.3 71 71 WSW 5 7 30.30 1026 10 16 0.00 0.00
7:15 pm 19:15 Clear 14 -10.2 8 -13.2 79 79 W 5 7 30.31 1027 10 16 0.00 0.00
7:35 pm 19:35 Clear 8 -13.3 5 -15 87 87 Calm 30.31 1027 10 16 0.00 0.00
7:55 pm 19:55 Clear 11 -11.6 8 -13.2 88 88 Calm 30.31 1026 10 16 0.00 0.00
8:15 pm 20:15 Clear 9 -12.9 6 -14.3 89 89 Calm 30.32 1027 10 16 0.00 0.00
8:35 pm 20:35 Clear 9 -12.6 7 -13.7 92 92 Calm 30.31 1026 10 16 0.00 0.00
8:55 pm 20:55 Clear 7 -14 5 -14.9 93 93 Calm 30.33 1027 10 16 0.00 0.00
9:15 pm 21:15 Clear 6 -14.4 4 -15.6 91 91 Calm 30.34 1027 10 16 0.00 0.00
9:35 pm 21:35 Clear 7 -13.9 5 -15.1 91 91 Calm 30.35 1028 10 16 0.00 0.00
9:55 pm 21:55 Clear 6 -14.4 4 -15.7 90 90 Calm 30.37 1028 7 11 0.00 0.00
10:15 pm 22:15 Clear 6 -14.6 3 -15.9 90 90 Calm 30.38 1029 10 16 0.00 0.00
10:35 pm 22:35 Clear 5 -14.8 3 -16.1 90 90 Calm 30.38 1029 7 11 0.00 0.00
10:55 pm 22:55 Clear 3 -16 0 -17.6 88 88 Calm 30.37 1029 10 16 0.00 0.00
11:15 pm 23:15 Clear 4 -15.8 1 -17.2 89 89 NE 3 6 30.36 1028 10 16 0.00 0.00
11:35 pm 23:35 Clear 3 -16.2 0 -17.7 88 88 N 3 6 30.36 1028 10 16 0.00 0.00
11:55 pm 23:55 Clear 2 -16.4 0 -18 88 88 Calm 30.36 1028 10 16 0.00 0.00

Powered by AerisWeather